Weather History for Lumberton, NC

Change the Weather History Date:

Friday, February 8, 2013

  Actual Average Record
Temperature  
Mean Temperature 52 °F 45 °F  
Max Temperature 60 °F 56 °F 74 °F (2009)
Min Temperature 44 °F 35 °F 27 °F (2006)
Degree Days  
Heating Degree Days 13 20  
Month to date heating degree days 165 162  
Since 1 July heating degree days 1689 1881  
Cooling Degree Days 0 0  
Month to date cooling degree days 0 0  
Year to date cooling degree days 4 1  
Growing Degree Days 2 (Base 50)    
Moisture  
Dew Point 44 °F    
Average Humidity 77    
Maximum Humidity 100    
Minimum Humidity 54    
Precipitation  
Precipitation 0.48 in 0.10 in 0.48 in (2013)
Month to date precipitation 1.03 0.70  
Year to date precipitation 2.51 3.67  
Sea Level Pressure  
Sea Level Pressure 29.85 in    
Wind  
Wind Speed 11 mph (NNW)    
Max Wind Speed 28 mph    
Max Gust Speed 37 mph    
Visibility 9 miles    
Events Rain    
T = Trace of Precipitation, MM = Missing Value Source: NWS Daily Summary

Daily Weather History Graph

Daily Weather History Graph

Search for Another Location

Airport:

Trip Planner

Search our weather history database for the weather conditions in past years. The results will help you decide how hot, cold, wet, or windy it might be!

Date:

Astronomy

Feb. 08, 2013 Rise Set
Actual Time 7:08 AM EST 5:52 PM EST
Civil Twilight 6:42 AM EST 6:19 PM EST
Nautical Twilight 6:12 AM EST 6:48 PM EST
Astronomical Twilight 5:43 AM EST 7:18 PM EST
Moon 5:33 AM EST (2/8) 4:25 PM EST (2/8)
Length of Visible Light 11h 36m
Length of Day
10h 44m
Waning Crescent, 3% of the Moon is Illuminated
Feb 8
Waning Crescent
Feb 10
New
Feb 17
First Quarter
Feb 25
Full
Mar 4
Last Quarter

Hourly Weather History & Observations

Time (EST) Temp. Windchill Dew Point Humidity Pressure Visibility Wind Dir Wind Speed Gust Speed Precip Events Conditions
12:54 AM 50.0 °F - 48.9 °F 96% 29.75 in 3.0 mi NNE 15.0 mph - 0.12 in Rain Rain
1:10 AM 50.0 °F - 48.2 °F 94% 29.78 in 2.0 mi NNW 11.5 mph - 0.09 in Rain Heavy Rain
1:17 AM 50.0 °F - 48.2 °F 94% 29.78 in 2.0 mi North 13.8 mph 20.7 mph 0.13 in Rain Heavy Rain
1:54 AM 48.9 °F - 48.0 °F 97% 29.79 in 3.0 mi North 13.8 mph 19.6 mph 0.29 in Rain Rain
2:11 AM 48.2 °F - 46.4 °F 93% 29.76 in 4.0 mi NNE 18.4 mph 25.3 mph 0.04 in Rain Rain
2:20 AM 48.2 °F - 46.4 °F 93% 29.70 in 5.0 mi NE 19.6 mph 36.8 mph 0.06 in Rain Rain
2:33 AM 48.2 °F - 46.4 °F 93% 29.75 in 9.0 mi North 20.7 mph 25.3 mph 0.07 in Rain Light Rain
2:54 AM 48.9 °F - 46.0 °F 90% 29.73 in 10.0 mi North 13.8 mph 26.5 mph 0.07 in   Overcast
3:54 AM 48.0 °F - 45.0 °F 89% 29.73 in 10.0 mi North 16.1 mph 25.3 mph N/A   Overcast
4:54 AM 46.9 °F - 44.1 °F 90% 29.75 in 10.0 mi North 16.1 mph 23.0 mph N/A   Overcast
5:54 AM 46.9 °F - 44.1 °F 90% 29.79 in 10.0 mi North 13.8 mph - N/A   Overcast
6:39 AM 46.4 °F 40.7 °F 44.6 °F 93% 29.81 in 10.0 mi NNW 12.7 mph - N/A   Overcast
7:54 AM 46.9 °F - 43.0 °F 86% 29.82 in 10.0 mi NNW 11.5 mph - N/A   Clear
8:54 AM 48.9 °F - 43.0 °F 80% 29.84 in 10.0 mi NW 12.7 mph - N/A   Clear
9:13 AM 46.4 °F 39.8 °F 42.8 °F 87% 29.86 in 10.0 mi NW 16.1 mph - N/A   Mostly Cloudy
9:54 AM 45.0 °F 37.9 °F 41.0 °F 86% 29.89 in 10.0 mi NNW 16.1 mph - N/A   Overcast
10:54 AM 46.0 °F 40.2 °F 41.0 °F 83% 29.92 in 10.0 mi NW 12.7 mph - N/A   Overcast
11:54 AM 48.9 °F - 42.1 °F 77% 29.90 in 10.0 mi WNW 10.4 mph - N/A   Scattered Clouds
12:54 PM 53.1 °F - 45.0 °F 74% 29.87 in 10.0 mi West 9.2 mph - N/A   Clear
1:54 PM 57.0 °F - 46.0 °F 67% 29.87 in 10.0 mi WNW 11.5 mph 19.6 mph N/A   Clear
2:54 PM 59.0 °F - 45.0 °F 60% 29.85 in 10.0 mi WNW 12.7 mph 20.7 mph N/A   Partly Cloudy
3:54 PM 60.1 °F - 46.0 °F 60% 29.86 in 10.0 mi WNW 12.7 mph - N/A   Clear
4:54 PM 57.0 °F - 46.0 °F 67% 29.87 in 10.0 mi West 6.9 mph - N/A   Partly Cloudy
5:54 PM 55.0 °F - 46.9 °F 74% 29.89 in 10.0 mi Calm Calm - N/A   Mostly Cloudy
6:54 PM 54.0 °F - 48.0 °F 80% 29.91 in 10.0 mi WSW 3.5 mph - N/A   Overcast
7:54 PM 50.0 °F - 46.0 °F 86% 29.94 in 10.0 mi West 6.9 mph - N/A   Clear
8:54 PM 52.0 °F - 39.9 °F 63% 29.96 in 10.0 mi WNW 8.1 mph - N/A   Clear
9:54 PM 52.0 °F - 35.1 °F 53% 30.00 in 10.0 mi NW 12.7 mph - N/A   Clear
10:54 PM 48.9 °F - 32.0 °F 52% 30.04 in 10.0 mi NNW 15.0 mph 27.6 mph N/A   Clear
11:54 PM 46.0 °F 41.0 °F 30.0 °F 54% 30.08 in 10.0 mi NNW 10.4 mph - N/A   Clear